This is the latest recevied weather packets stored in our database for station/object EB1GOD-1. If no packets are shown the sender has not sent any weather packets the latest 10 day(s).
| Time | Temp. | Humidity | Pressure | Rain* | Wind** | Luminosity | Snow |
|---|---|---|---|---|---|---|---|
| 1777458660 | 15° C | 76% | 1145.9 hPa | - | - | - | - |
| 1777458627 | 15° C | 76% | 1145.9 hPa | - | - | - | - |
| 1777457722 | 15° C | 75% | 1145.9 hPa | - | - | - | - |
| 1777456822 | 14.44° C | 75% | 1146 hPa | - | - | - | - |
| 1777455922 | 15° C | 76% | 1145.9 hPa | - | - | - | - |
| 1777455021 | 15° C | 75% | 1146 hPa | - | - | - | - |
| 1777454121 | 15° C | 73% | 1146.2 hPa | - | - | - | - |
| 1777453221 | 15° C | 74% | 1146.2 hPa | - | - | - | - |
| 1777452321 | 15° C | 77% | 1146.3 hPa | - | - | - | - |
| 1777451421 | 15° C | 77% | 1146.4 hPa | - | - | - | - |
| 1777450521 | 14.44° C | 81% | 1146.4 hPa | - | - | - | - |
| 1777449621 | 13.89° C | 81% | 1146.4 hPa | - | - | - | - |
| 1777448721 | 13.89° C | 79% | 1146.6 hPa | - | - | - | - |
| 1777447822 | 13.89° C | 79% | 1146.6 hPa | - | - | - | - |
| 1777446921 | 12.78° C | 79% | 1146.6 hPa | - | - | - | - |
| 1777446021 | 13.33° C | 78% | 1146.7 hPa | - | - | - | - |
| 1777445121 | 12.78° C | 77% | 1146.8 hPa | - | - | - | - |
| 1777444221 | 12.78° C | 78% | 1146.7 hPa | - | - | - | - |
| 1777443320 | 12.78° C | 77% | 1146.8 hPa | - | - | - | - |
| 1777442420 | 12.78° C | 77% | 1146.7 hPa | - | - | - | - |
| 1777441520 | 12.78° C | 77% | 1146.6 hPa | - | - | - | - |
| 1777440620 | 12.78° C | 76% | 1146.7 hPa | - | - | - | - |
| 1777439720 | 13.33° C | 77% | 1146.7 hPa | - | - | - | - |
| 1777438820 | 12.78° C | 78% | 1146.8 hPa | - | - | - | - |
| 1777437908 | 12.78° C | 77% | 1147 hPa | - | - | - | - |
* Rain since midnight (hover to see other rain measurements)
** Current wind speed in m/s (hover to see current wind gust speed)